| time (UTC) | temp F | wind direction | speed knots | gust knots | rain 1hr in | rain 24hr in | rain mn in | humidity % | barometer mb |
| 20260506050107 | 74 | 190 | 2.6 | 6.1 | 0.00 | 0.00 | 0.00 | 89 | 1008.1 |
| 20260506044555 | 74 | 194 | 3.5 | 6.1 | 0.00 | 0.00 | 0.00 | 89 | 1008.1 |
| 20260506044540 | 74 | 168 | 2.6 | 6.1 | 0.00 | 0.00 | 0.00 | 89 | 1008.1 |
| 20260506043057 | 74 | 180 | 3.5 | 7.0 | 0.00 | 0.00 | 0.00 | 89 | 1007.9 |
| 20260506041553 | 74 | 174 | 3.5 | 7.0 | 0.00 | 0.00 | 0.00 | 89 | 1007.7 |
| 20260506040053 | 74 | 153 | 3.5 | 7.0 | 0.00 | 0.00 | 0.00 | 89 | 1007.6 |
| 20260506034603 | 74 | 157 | 3.5 | 8.7 | 0.00 | 0.00 | 0.00 | 88 | 1007.7 |
| 20260506033052 | 75 | 152 | 4.3 | 7.0 | 0.00 | 0.00 | 0.00 | 88 | 1007.3 |
| 20260506031551 | 75 | 154 | 4.3 | 7.8 | 0.00 | 0.00 | 0.00 | 87 | 1007.0 |
| 20260506030050 | 75 | 157 | 3.5 | 7.0 | 0.00 | 0.00 | 0.00 | 87 | 1006.7 |
| 20260506024606 | 76 | 135 | 3.5 | 7.8 | 0.00 | 0.00 | 0.00 | 87 | 1006.7 |
| 20260506023049 | 76 | 145 | 4.3 | 7.8 | 0.00 | 0.00 | 0.00 | 86 | 1006.3 |
| 20260506021552 | 77 | 145 | 4.3 | 7.0 | 0.00 | 0.00 | 0.00 | 85 | 1006.1 |
| 20260506020048 | 77 | 157 | 4.3 | 7.0 | 0.00 | 0.00 | 0.00 | 85 | 1005.9 |
| 20260506014550 | 77 | 142 | 2.6 | 7.0 | 0.00 | 0.00 | 0.00 | 84 | 1005.9 |
| 20260506013101 | 78 | 150 | 2.6 | 7.0 | 0.00 | 0.00 | 0.00 | 83 | 1005.9 |
| 20260506011556 | 79 | 151 | 1.7 | 4.3 | 0.00 | 0.00 | 0.00 | 82 | 1005.8 |
| 20260506010046 | 79 | 135 | 2.6 | 7.0 | 0.00 | 0.00 | 0.00 | 81 | 1005.7 |
| 20260506004544 | 80 | 134 | 2.6 | 5.2 | 0.00 | 0.00 | 0.00 | 80 | 1005.4 |
| 20260506003046 | 80 | 147 | 1.7 | 3.5 | 0.00 | 0.00 | 0.00 | 79 | 1005.4 |
| 20260506001546 | 80 | 171 | 2.6 | 6.1 | 0.00 | 0.00 | 0.00 | 78 | 1005.1 |
| 20260506000044 | 81 | 171 | 1.7 | 5.2 | 0.00 | 0.00 | 0.00 | 77 | 1005.2 |
| 20260505234543 | 81 | 174 | 3.5 | 7.8 | 0.00 | 0.00 | 0.00 | 76 | 1005.0 |
| 20260505233042 | 81 | 159 | 2.6 | 7.0 | 0.00 | 0.00 | 0.00 | 76 | 1005.0 |
| 20260505231542 | 81 | 177 | 4.3 | 8.7 | 0.00 | 0.00 | 0.00 | 75 | 1004.9 |
| 20260505230054 | 81 | 152 | 5.2 | 9.6 | 0.00 | 0.00 | 0.00 | 75 | 1004.9 |
| 20260505224541 | 81 | 164 | 3.5 | 11.3 | 0.00 | 0.00 | 0.00 | 75 | 1004.8 |
| 20260505223052 | 82 | 152 | 4.3 | 10.4 | 0.00 | 0.00 | 0.00 | 73 | 1005.1 |
| 20260505221537 | 81 | 166 | 6.1 | 12.2 | 0.00 | 0.00 | 0.00 | 75 | 1005.0 |
| 20260505220038 | 81 | 145 | 6.1 | 11.3 | 0.00 | 0.00 | 0.00 | 75 | 1005.2 |
| 20260505214532 | 81 | 162 | 5.2 | 10.4 | 0.00 | 0.00 | 0.00 | 75 | 1005.6 |
| 20260505213048 | 81 | 183 | 7.0 | 12.2 | 0.00 | 0.00 | 0.00 | 75 | 1005.4 |
| 20260505211530 | 82 | 177 | 7.0 | 13.0 | 0.00 | 0.00 | 0.00 | 75 | 1005.7 |
| 20260505210028 | 81 | 177 | 7.0 | 13.9 | 0.00 | 0.00 | 0.00 | 75 | 1005.8 |
| 20260505204523 | 81 | 150 | 5.2 | 10.4 | 0.00 | 0.00 | 0.00 | 76 | 1006.2 |
| 20260505203030 | 80 | 169 | 7.0 | 13.9 | 0.00 | 0.00 | 0.00 | 76 | 1006.6 |
| 20260505201520 | 79 | 163 | 7.0 | 12.2 | 0.00 | 0.00 | 0.00 | 80 | 1006.6 |
| 20260505200027 | 79 | 157 | 6.1 | 13.0 | 0.00 | 0.00 | 0.00 | 78 | 1006.8 |
| 20260505194513 | 79 | 183 | 7.8 | 13.0 | 0.00 | 0.00 | 0.00 | 78 | 1007.3 |
| 20260505193012 | 79 | 169 | 6.1 | 11.3 | 0.00 | 0.00 | 0.00 | 79 | 1007.3 |
| 20260505191511 | 78 | 165 | 7.0 | 11.3 | 0.00 | 0.00 | 0.00 | 79 | 1007.4 |
| 20260505190008 | 78 | 206 | 7.0 | 12.2 | 0.00 | 0.00 | 0.00 | 81 | 1007.6 |
| 20260505184505 | 77 | 196 | 7.0 | 12.2 | 0.00 | 0.00 | 0.00 | 81 | 1007.8 |
| 20260505183004 | 77 | 231 | 8.7 | 13.9 | 0.00 | 0.00 | 0.00 | 82 | 1007.8 |
| 20260505181601 | 76 | 201 | 6.1 | 13.0 | 0.00 | 0.00 | 0.00 | 84 | 1008.1 |
| 20260505180058 | 76 | 203 | 7.8 | 11.3 | 0.00 | 0.00 | 0.00 | 84 | 1008.1 |
| 20260505174558 | 75 | 169 | 7.0 | 12.2 | 0.00 | 0.00 | 0.00 | 85 | 1008.2 |
| 20260505173053 | 75 | 181 | 6.1 | 13.0 | 0.00 | 0.00 | 0.00 | 86 | 1008.3 |
| 20260505171551 | 74 | 247 | 6.1 | 13.0 | 0.00 | 0.00 | 0.00 | 86 | 1008.4 |
| 20260505170046 | 73 | 202 | 6.1 | 12.2 | 0.00 | 0.00 | 0.00 | 88 | 1008.4 |
| 20260505164556 | 73 | 224 | 3.5 | 12.2 | 0.00 | 0.00 | 0.00 | 89 | 1008.3 |
| 20260505163038 | 72 | 162 | 5.2 | 12.2 | 0.00 | 0.00 | 0.00 | 89 | 1008.3 |
| 20260505161534 | 72 | 230 | 7.8 | 12.2 | 0.00 | 0.00 | 0.00 | 89 | 1008.5 |
| 20260505153044 | 71 | 183 | 7.8 | 14.8 | 0.00 | 0.00 | 0.00 | 90 | 1008.3 |
| 20260505151525 | 71 | 209 | 8.7 | 11.3 | 0.00 | 0.00 | 0.00 | 90 | 1008.2 |
| 20260505124513 | 70 | 164 | 7.0 | 12.2 | 0.00 | 0.00 | 0.00 | 90 | 1007.4 |
| 20260505123012 | 69 | 192 | 7.8 | 11.3 | 0.00 | 0.00 | 0.00 | 89 | 1007.2 |
| 20260505121511 | 69 | 207 | 7.8 | 13.0 | 0.00 | 0.00 | 0.00 | 89 | 1007.1 |
| 20260505120010 | 69 | 184 | 7.8 | 15.6 | 0.00 | 0.00 | 0.00 | 89 | 1007.0 |
| 20260505114510 | 69 | 191 | 7.0 | 13.0 | 0.00 | 0.00 | 0.00 | 89 | 1007.0 |
| 20260505113006 | 69 | 199 | 8.7 | 13.9 | 0.00 | 0.00 | 0.00 | 89 | 1006.9 |
| 20260505111506 | 69 | 204 | 7.8 | 13.9 | 0.00 | 0.00 | 0.00 | 89 | 1007.0 |
| 20260505101604 | 68 | 206 | 6.1 | 9.6 | 0.00 | 0.00 | 0.00 | 89 | 1007.5 |
| 20260505100100 | 68 | 198 | 7.0 | 13.0 | 0.00 | 0.00 | 0.00 | 89 | 1007.2 |
| 20260505094606 | 68 | 183 | 6.1 | 11.3 | 0.00 | 0.00 | 0.00 | 90 | 1007.5 |
| 20260505093056 | 68 | 161 | 5.2 | 10.4 | 0.00 | 0.00 | 0.00 | 89 | 1007.2 |
| 20260505091559 | 68 | 166 | 4.3 | 9.6 | 0.00 | 0.00 | 0.00 | 89 | 1007.6 |
| 20260505090058 | 68 | 160 | 4.3 | 11.3 | 0.00 | 0.00 | 0.00 | 89 | 1007.5 |
| 20260505084551 | 69 | 235 | 7.0 | 12.2 | 0.00 | 0.00 | 0.00 | 89 | 1007.7 |
| 20260505083050 | 69 | 204 | 7.8 | 16.5 | 0.00 | 0.00 | 0.00 | 89 | 1007.7 |
| 20260505081557 | 69 | 174 | 7.8 | 10.4 | 0.00 | 0.00 | 0.00 | 89 | 1007.9 |
| 20260505080047 | 69 | 204 | 7.8 | 14.8 | 0.00 | 0.00 | 0.00 | 89 | 1008.1 |
| 20260505074559 | 69 | 181 | 7.0 | 12.2 | 0.00 | 0.00 | 0.00 | 89 | 1008.2 |
| 20260505073036 | 69 | 176 | 6.1 | 12.2 | 0.00 | 0.00 | 0.00 | 89 | 1008.3 |
| 20260505071535 | 69 | 187 | 8.7 | 13.9 | 0.00 | 0.00 | 0.00 | 88 | 1008.5 |
| 20260505070032 | 69 | 195 | 8.7 | 12.2 | 0.00 | 0.00 | 0.00 | 88 | 1008.6 |
| 20260505064533 | 69 | 163 | 6.1 | 17.4 | 0.00 | 0.00 | 0.00 | 88 | 1008.8 |
| 20260505063035 | 69 | 169 | 7.0 | 13.0 | 0.00 | 0.00 | 0.00 | 88 | 1008.9 |
| 20260505061532 | 69 | 188 | 7.0 | 12.2 | 0.00 | 0.00 | 0.00 | 88 | 1009.2 |
| 20260505060028 | 69 | 162 | 6.1 | 11.3 | 0.00 | 0.00 | 0.00 | 88 | 1009.0 |